カタログに戻る

STARLINK-36845

運用中通信VLEO
NORAD 68056·PAYLOAD·🇺🇸 United States

打ち上げ Mar 2, 2026 から Vandenberg Space Force Base

Loading…

次のパス (今後24時間)

TLE

最新Source: CelesTrak SupGP

元期: Sep 14, 2026, 22:40 UTC

1 68056C 26041S   26257.94493056  .00036253  00000+0  10710-2 0  2576
2 68056  53.1572 245.8605 0001371  96.7771 263.1976 15.34375570    14

AllMySatでSTARLINK-36845をリアルタイム追跡

Download on the App Store